User: anonymous   Login
Location: Ústí nad Labem
(50.6611°N, 14.0531°E)
Time: 00:04:11
(UTC+02:00)
Language:

Tiros 1 despin weight - Orbit

View from above orbital plane
View from above orbital plane
View from above satellite
View from above satellite

Ground track
Ground track

The orbit data is extracted from the following two-line orbital elements,

1   115U 60002D   24103.14831525  .00002723  00000-0  30897-3 0  9998
2   115  48.1670  32.9282 0031676 290.1163  69.6345 14.88871698420252
Epoch (UTC): 12 April 2024 03:33:34
Eccentricity: 0.0031676
inclination: 48.1670°
perigee height: 579 km
apogee height: 623 km
right ascension of ascending node: 32.9282°
argument of perigee: 290.1163°
revolutions per day: 14.88871698
mean anomaly at epoch: 69.6345°
orbit number at epoch: 42025

The dashed part of the orbit path shows where the satellite is in the earth's shadow,  

DLR